Tracking 25744 objects as of 25-Jun-2022
HD Live streaming from Space Station
objects crossing your sky now

STARLINK-3324

Track STARLINK-3324 now!
10-day predictions
STARLINK-3324 is classified as:


NORAD ID: 50814
Int'l Code: 2022-001M
Perigee: 545.6 km
Apogee: 548.2 km
Inclination: 53.2 °
Period: 95.4 minutes
Semi major axis: 6917 km
RCS: Unknown
Launch date: January 6, 2022
Source: United States (US)
Launch site: AIR FORCE EASTERN TEST RANGE (AFETR)
aabbcc
Your satellite tracking list
Your tracking list is empty




NASA's NSSDC Master Catalog

Two Line Element Set (TLE):
1 50814U 22001M   22175.56061722  .00000418  00000-0  44393-4 0  9999
2 50814  53.2184 128.0291 0001914  53.0632 307.0535 15.08841639 27254
Source of the keplerian elements: AFSPC